Location: Skalnate Pleso
(49.1889°N, 20.2450°E)
Time: 08:27:03
(UTC+02:00)

Cosmos 1605 Rocket - Pass Details

Date: 22 February 2020
Orbit: 944 x 1007 km, 82.9° (Epoch: 07 April)

Event Time Altitude Azimuth Distance (km) Brightness Sun altitude
Rises 05:25:52 0° 337° (NNW) 3,684 6.8 -12.2°
Reaches altitude 10° 05:29:32 10° 316° (NW) 2,718 5.9 -11.6°
Maximum altitude 05:32:49 15° 284° (WNW) 2,353 5.4 -11.1°
Enters shadow 05:34:48 13° 263° (W) 2,478 5.5 -10.7°
Exits shadow 05:39:43 - 229° (SW) 3,622 6.6 -9.9°
